Find Starlink 30905

NORAD ID: 58356 Int'l Des: 2023-177 Owner: SPXS Country: US Constellation: starlink operational
LEOCIRCULAR

現在のビュー

3D地球を読み込み中...

About Starlink 30905

Starlink 30905 (NORAD 58356) is a starlink constellation satellite (v2 mini) launched Nov 18, 2023 by SPXS of US. It operates in LEO, CIRCULAR orbit with a mass of 730.00 kg.

Starlink 30905について

説明を読み込み中...

次回通過

Passes for default location (London). Set your location on the main map for personalized predictions.

高度履歴

Loading altitude history...

軌道要素

1 58356U 23177F 26196.81043491 .00003395 00000-0 13291-3 0 9990
2 58356 43.0058 346.8634 0001905 279.6254 80.4383 15.27566383147760
Epoch: Jul 15, 2026 • Age: 21 hours

現在のステータス

高度 493.5 km
遠地点 / 近地点 N/A
速度 7.62 km/s
衛星直下点 -38.38°S, 31.1°E
打ち上げ日 Nov 18, 2023
運用期間 2.6 years
タイプ internet

技術仕様

分類 Payload
質量 730.00 kg
乾燥質量 700.00 kg
総質量 730.00 kg
長さ 0.30 m
直径 4.10 m
スパン 29.00 m
形状 Box + pan
製造者 SPXS
バスタイプ Starlink V2M
フェーズステータス In Orbit
所有者/国 SPXS/US

Most Searched